Weather Roundup
Issued by NWS Chicago, IL

Home | Current Version | Previous Version | Graphics & Text | Print | Product List | Glossary On
Versions: 1 2 3 4 5 6 7 8 9 10 11 12 13 14 15 16 17 18 19 20 21 22 23 24 25 26 27 28 29 30 31 32 33 34 35 36 37 38 39 40 41 42 43 44 45 46 47 48 49 50
652
NZUS59 KLOT 230312
HRRLOT

CHICAGO AREA WEATHER ROUNDUP
NATIONAL WEATHER SERVICE CHICAGO/ROMEOVILLE IL
900 PM CST WED FEB 22 2017

NOTE: "FAIR" INDICATES FEW OR NO CLOUDS BELOW 12,000 FEET WITH NO
SIGNIFICANT WEATHER AND/OR OBSTRUCTIONS TO VISIBILITY.

* THESE STATIONS ARE NOT UNDER NWS QUALITY CONTROL. THEY ALSO MAY NOT
  REPORT WEATHER SUCH AS PRECIPITATION OR FOG.

ILZ005-006-012>014-019>023-230400-
NORTHEAST ILLINOIS

CITY           SKY/WX    TMP DP  RH WIND       PRES   REMARKS
OHARE          CLEAR     62  53  72 SW17G26   29.61S
MIDWAY         CLEAR     62  53  72 SW17G23   29.63R
AURORA         CLEAR     58  53  84 S14       29.63R
LANSING*       CLEAR     56  55  95 S8        29.66R
JOLIET*        CLEAR     60  55  84 SW7       29.65R
WAUKEGAN       PTCLDY    60  54  80 SW16G28   29.59S
DUPAGE AIRPORT CLEAR     58  52  80 SW14G24   29.62S
WHEELING       CLEAR     61  53  75 SW16G23   29.62R
KANKAKEE*      CLEAR     56  54  91 S10       29.68R
MORRIS*        CLEAR     57  54  87 SW12      29.64S
LEWIS AIRPORT* CLEAR     58  56  92 SW15      29.64S
NORTHERLY ISL    N/A     63  53  70 S10         N/A
$$

WIZ051-052-058>065-066-070>072-230400-
SOUTHEAST WISCONSIN

CITY           SKY/WX    TMP DP  RH WIND       PRES   REMARKS
MILWAUKEE      CLEAR     60  51  72 SW16G25   29.56F
KENOSHA*       CLEAR     60  54  80 SW13G23   29.58S
RACINE*        CLEAR     60  52  74 SW14      29.58S
WAUKESHA       CLEAR     55  50  82 S14G21    29.57S
WEST BEND      CLEAR     57  52  82 SW8       29.53S
$$

INZ001>003-010>013-019-020-230400-
NORTHWEST INDIANA

CITY           SKY/WX    TMP DP  RH WIND       PRES   REMARKS
GARY*          CLEAR     61  54  77 S9        29.65R
MICHIGAN CITY* NOT AVBL
RENSSELAER*    NOT AVBL
VALPARAISO     PTCLDY    58  54  86 S8        29.68R
$$

LMZ740>746-230400-
SOUTHERN LAKE MICHIGAN

STATION/POSITION TIME  SKY/WX   TEMP WIND        PRES    VSBY
                                AIR  DIR/SP/G
                 (UTC)          (F)  (DEG/KT/KT) (MB)    (MI)
HARRISON CRIB    0240            63  210/ 23/ 25   N/A
BURNHAM HARBOR   0300            62  200/ 10/ 19   N/A
CALUMET HARBOR   0248            61  190/ 11/ 15 1003.1F
BURNS HARBOR     0240            59  180/ 12/ 17 1004.4R
MICHIGAN CITY    0240            59  160/ 14/ 17   N/A
$$

ABBREVIATIONS USED IN REMARKS
   TC - TEMPERATURE IN CELSIUS
  WCI - WIND CHILL INDEX
   HX - HEAT INDEX
  VSB - VISIBILITY
$$




USA.gov is the U.S. government's official web portal to all federal, state and local government web resources and services.